Location: Peterborough
(44.3091°N, 78.3197°W)
Time: 19:06:08
(UTC-04:00)

Altair - Pass Details

Date: 26 March 2023
Orbit: 1501 x 1682 km, 47.2° (Epoch: 04 June)

Event Time Altitude Azimuth Distance (km) Brightness Sun altitude
Exits shadow 05:30:34 - 204° (SSW) 4,011 9.3 -17.4°
Reaches altitude 10° 05:31:27 10° 201° (SSW) 3,756 9.1 -17.3°
Maximum altitude 05:39:57 39° 137° (SE) 2,157 8.5 -15.9°
Drops below altitude 10° 05:48:13 10° 73° (ENE) 3,669 10.9 -14.4°
Sets 05:51:27 0° 66° (ENE) 4,643 12.0 -13.9°
